Location: Hepcat Sky Observatory
(29.9800°N, 95.6500°W)
Time: 04:15:32
(UTC-06:00)

Daily predictions for brighter satellites

Satellite Brightness Start Highest point End
(mag) Time Altitude Azimuth Time Altitude Azimuth Time Altitude Azimuth
Cosmos 2278 Rocket 3.4 04:14:02 38° ESE 04:14:02 38° ESE 04:18:04 10° SE
CZ-3C R/B 4.3 04:08:01 33° SSW 04:14:21 53° SSE 06:01:35 10° E
SL-16 R/B 3.9 04:17:23 26° NE 04:17:23 26° NE 04:19:54 10° NNE
Cosmos 1680 Rocket 4.4 04:38:54 41° NE 04:38:54 41° NE 04:42:27 10° NNE
USA 215 3.3 04:35:11 10° NE 04:40:47 60° N 04:40:47 60° N
Cosmos 2181 Rocket 4.3 04:42:26 17° N 04:47:25 66° E 04:53:41 10° SSE
CZ-3 R/B 3.4 04:32:44 10° SW 04:52:04 40° S 04:57:42 10° E
Cosmos 1975 Rocket 3.9 04:56:30 42° SSE 04:56:30 42° SSE 04:59:30 10° S
CENTAUR R/B 3.8 04:58:46 25° N 04:58:46 25° N 05:01:54 10° NNE
Cosmos 2112 Rocket 4.0 04:50:56 10° S 04:56:09 80° ESE 05:01:22 10° NNE
Abrixas rocket 4.5 04:57:57 24° SE 04:57:57 24° SE 05:00:32 10° ENE
CZ-4B R/B 4.2 04:59:25 72° SE 04:59:25 72° SE 05:03:39 10° S
Feng Yun 1-1 Rocket 4.0 04:54:57 10° N 05:00:32 80° WNW 05:05:58 10° SSW
OAO 2 Rocket 4.4 05:06:14 31° SSW 05:06:14 31° SSW 05:10:10 10° SSE
Gbstr 26 Del rocket 4.4 05:08:43 29° N 05:09:45 32° NE 05:13:29 10° ESE
Cosmos 1603 4.3 05:06:18 10° S 05:11:52 56° ESE 05:17:25 10° NNE
Cosmos 1238 Rocket 4.2 05:09:01 10° N 05:13:53 57° E 05:19:43 10° SSE
DASH 2.5 05:17:00 56° S 05:17:13 57° SSE 05:22:20 10° E
Thor Agena Rocket 3.4 05:14:26 10° S 05:19:22 58° WSW 05:20:20 49° WNW
Meteor 1-20 Rocket 4.1 05:17:08 10° S 05:22:46 88° W 05:28:19 10° N
Lacrosse 5 2.3 05:24:28 10° SSW 05:29:30 64° SE 05:34:33 10° NE
COSMO-SKYMED 1 3.4 05:26:18 10° SSE 05:30:28 50° ENE 05:34:41 10° N
Cosmos 921 Rocket 3.9 05:32:29 10° N 05:36:53 52° ENE 05:41:16 10° SSE
Cosmos 2297 3.7 05:36:46 21° NNW 05:40:32 64° WSW 05:46:07 10° S
Centaur AC-116 3.9 05:38:50 25° WSW 05:40:56 36° SSW 05:43:27 10° SE
DELTA 2 R/B (1) 3.6 05:42:22 28° WNW 05:45:25 79° NNE 05:50:58 10° ESE
Cosmos 44 Rocket 3.5 05:43:00 10° SSW 05:48:10 79° ESE 05:53:20 10° NNE
Okean 1 3.2 05:46:11 10° N 05:50:15 88° WSW 05:54:16 10° S
Meteor 1-11 Rocket 4.2 05:45:57 10° S 05:51:49 68° E 05:57:34 10° NNE
Cosmos 2074 Rocket 4.2 05:48:08 10° SSW 05:54:07 46° W 06:00:08 10° N
Cosmos 2278 Rocket 3.5 05:55:57 18° W 05:56:19 18° W 06:00:04 10° SW
Cosmos 1300 Rocket 3.5 05:52:16 10° S 05:56:41 74° W 06:01:06 10° N
USA 32 4.1 05:52:05 10° NNW 05:57:10 53° W 06:02:14 10° SSW
SL-16 R/B 3.6 05:59:24 17° NW 05:59:24 17° NW 06:02:31 10° NNW
Cosmos 1602 3.7 05:55:54 10° S 05:59:49 84° W 06:03:47 10° N
CRYOSAT 2 4.4 05:55:44 10° S 06:00:31 59° W 06:05:20 10° NNW
Cosmos 1371 Rocket 4.2 05:57:44 10° NNW 06:03:03 77° ENE 06:08:16 10° SSE
Ariane Rocket 2.9 05:58:52 10° N 06:03:51 63° WNW 06:08:50 10° SSW
ATLAS CENTAUR Rocket 2.7 05:55:55 15° W 06:04:52 74° S 06:08:50 10° ESE
Cosmos 1812 3.4 06:03:42 14° NNW 06:06:28 32° W 06:09:54 10° SSW
GPS 2-05 Rocket1 3.9 06:05:47 19° NW 06:07:48 33° N 06:11:08 10° ENE
Cosmos 2184 Rocket 4.5 06:02:22 10° SW 06:07:57 36° W 06:13:34 10° NNW
Cosmos 1346 Rocket 2.7 06:05:54 10° NNW 06:09:45 61° W 06:13:37 10° S
Meteor 1-13 Rocket 4.5 06:05:10 10° N 06:11:09 81° E 06:17:04 10° S
CZ-4 R/B 1.8 06:14:34 10° NNE 06:18:30 63° ESE 06:22:19 10° S
SKYMED 2 4.1 06:14:29 10° SSW 06:18:32 38° W 06:22:35 10° NNW
SWIFT 4.4 06:17:45 10° SW 06:20:57 20° S 06:24:08 10° SE
Cosmos 2154 Rocket 4.1 06:17:04 10° SSW 06:23:09 57° W 06:29:15 10° N
Meteor 1-28 Rocket 3.3 06:22:50 10° S 06:26:32 57° W 06:30:17 10° NNW
ASTRO E2 4.2 06:24:06 10° SW 06:27:49 36° SSE 06:31:33 10° E
Cosmos 1536 2.8 06:24:53 10° SSW 06:28:47 60° W 06:32:44 10° N
Cosmos 1633 3.2 06:25:36 10° SSW 06:28:56 33° W 06:32:17 10° NNW
Abrixas rocket 3.4 06:31:44 10° W 06:34:35 25° NW 06:37:26 10° NNE
IRS-1A Rocket 4.4 06:34:58 10° N 06:40:34 57° WNW 06:46:14 10° SSW
